Content
SEND FEEDBACK

Daily
Averages
Monthly
Summary
Philippines

QUEZON CITY, PHILIPPINES


Home > Asia > Philippines
Elevation: 46 meters     Latitude: 14 39N     Longitude: 121 03E

WEATHER
 
SELECT A DAY
Number of Records: 172,482;   Date Range: 7/1/96 - 7/26/14
 
SHARE

PRINT THIS DATA

[ ← Previous Day ]
WEATHER ALMANAC - 24 JUNE, 2013
[ Next Day → ]
[ °F ]   °C
We're sorry. There is no daily almanac available for Quezon City, Philippines on 24 June, 2013.
WEATHER BY HOUR - 24 JUNE, 2013
[ °F ]   °C
Local TimeTemperatureDewpointHumidityBarometerVisibilityWind DirectionWind SpeedGust SpeedPrecipitationEventsConditions
1:00 AM27 °C26 °C94 %1010.2 hPa9 kmESE (120°)7.4 km/hMostly Cloudy
2:00 AM26.7 °C26.1 °C97 %1010.2 hPa9.7 kmSouth (190°)7.2 km/hHaze
2:00 AM27 °C26 °C94 %1010.2 hPa9 kmSSW (200°)5.6 km/hMostly Cloudy
3:00 AM27 °C26 °C94 %1010.2 hPa9 kmVariable3.7 km/hMostly Cloudy
4:00 AM26 °C25 °C94 %1010.2 hPa9 kmVariable3.7 km/hMostly Cloudy
5:00 AM26 °C25 °C94 %1010.2 hPa9 kmCalmScattered Clouds
6:00 AM26 °C25 °C94 %1011.2 hPa8 kmVariable3.7 km/hScattered Clouds
7:00 AM27 °C25 °C89 %1011.2 hPa9 kmVariable3.7 km/hScattered Clouds
8:00 AM28.3 °C24.4 °C75 %1012.5 hPa9.7 kmSouth (180°)3.5 km/hHaze
8:00 AM29 °C25 °C79 %1012.2 hPa10 kmVariable3.7 km/hScattered Clouds
9:00 AM31 °C24 °C66 %1012.2 hPa10 kmEast (90°)7.4 km/hMostly Cloudy
10:00 AM30 °C26 °C79 %1012.2 hPa10 kmVariable11.1 km/hMostly Cloudy
11:00 AM30 °C25.6 °C71 %1012.2 hPa9.7 kmNW (310°)10.8 km/hHaze
11:00 AM30 °C25 °C74 %1011.2 hPa10 kmNW (310°)11.1 km/hOvercast
12:00 PM31 °C24 °C66 %1011.2 hPa10 kmNNW (330°)16.7 km/hOvercast
1:00 PM32 °C23 °C59 %1010.2 hPa10 kmNNW (330°)16.7 km/hOvercast
2:00 PM32.2 °C23.9 °C53 %1010.5 hPa9.7 kmWNW (300°)10.8 km/hHaze
2:00 PM32 °C24 °C62 %1009.1 hPa10 kmWNW (300°)13 km/hOvercast
3:00 PM32 °C24 °C62 %1009.1 hPa9 kmWest (280°)13 km/hOvercast
4:00 PM32 °C24 °C62 %1008.1 hPa10 kmWNW (300°)11.1 km/hOvercast
5:00 PM32.8 °C24.4 °C52 %1008.8 hPa9.7 kmWest (280°)3.5 km/hHaze
5:00 PM33 °C24 °C59 %1008.1 hPa10 kmWest (280°)3.7 km/hMostly Cloudy
6:00 PM32 °C24 °C62 %1009.1 hPa10 kmSE (140°)7.4 km/hMostly Cloudy
7:00 PM31 °C25 °C70 %1010.2 hPa10 kmSE (130°)5.6 km/hMostly Cloudy
8:00 PM30.6 °C25 °C65 %1010.8 hPa9.7 kmSE (130°)7.2 km/hHaze
8:00 PM31 °C25 °C70 %1010.2 hPa10 kmSE (130°)9.3 km/hMostly Cloudy
9:00 PM30 °C25 °C74 %1010.2 hPa10 kmESE (120°)11.1 km/hMostly Cloudy
10:00 PM30 °C25 °C74 %1011.2 hPa10 kmESE (120°)9.3 km/hMostly Cloudy
11:00 PM29.4 °C23.9 °C64 %1012.2 hPa9.7 kmESE (110°)10.8 km/hHaze
11:00 PM30 °C24 °C70 %1011.2 hPa10 kmESE (110°)9.3 km/hMostly Cloudy
Hourly data recorded from RPLL, located 0 kilometers away from Quezon City, Philippines







STORIES FROM OUR PARTNERS